Wetterdaten: aktuell Freitag, 20.07.2018 23:35
Datum Zeit Temp. A. Aussen2m Boden Feuchte A. Feuchte 2 Luftdruck Regen Wind Richtung Richtung Sonnenschein
20.07.2018 23:35 22,8 C 23,0 C 10,8 C 40 % 46 % 1008,6 hPa 0,0 l/m 7,9 km/h (2 Bft) N-NO 20 0 min
20.07.2018 23:30 22,8 C 23,0 C 10,8 C 40 % 46 % 1008,6 hPa 0,0 l/m 7,9 km/h (2 Bft) O-NO 65 0 min
20.07.2018 23:25 22,8 C 23,1 C 10,8 C 40 % 45 % 1008,6 hPa 0,0 l/m 13,3 km/h (3 Bft) W-NW 300 0 min
20.07.2018 23:20 22,9 C 23,1 C 10,8 C 40 % 45 % 1008,6 hPa 0,0 l/m 10,9 km/h (2 Bft) N 355 0 min
20.07.2018 23:15 23,0 C 23,2 C 10,8 C 39 % 45 % 1008,6 hPa 0,0 l/m 9,7 km/h (2 Bft) N-NO 15 0 min
20.07.2018 23:10 23,0 C 23,2 C 10,8 C 39 % 44 % 1008,6 hPa 0,0 l/m 12,7 km/h (3 Bft) NW 315 0 min
20.07.2018 23:05 23,1 C 23,3 C 10,8 C 39 % 44 % 1008,6 hPa 0,0 l/m 13,3 km/h (3 Bft) N-NO 15 0 min
20.07.2018 23:00 23,1 C 23,4 C 10,8 C 39 % 44 % 1008,6 hPa 0,0 l/m 9,7 km/h (2 Bft) N 350 0 min
20.07.2018 22:55 23,2 C 23,4 C 10,8 C 39 % 44 % 1008,6 hPa 0,0 l/m 10,9 km/h (2 Bft) W-SW 255 0 min
20.07.2018 22:50 23,3 C 23,4 C 10,8 C 39 % 44 % 1008,6 hPa 0,0 l/m 13,9 km/h (3 Bft) N 0 0 min
20.07.2018 22:45 23,3 C 23,5 C 10,8 C 39 % 45 % 1008,6 hPa 0,0 l/m 10,3 km/h (2 Bft) N 0 0 min
20.07.2018 22:40 23,3 C 23,5 C 10,8 C 40 % 46 % 1008,6 hPa 0,0 l/m 7,9 km/h (2 Bft) NO 50 0 min
20.07.2018 22:35 23,4 C 23,6 C 10,8 C 41 % 46 % 1008,6 hPa 0,0 l/m 4,8 km/h (1 Bft) O 95 0 min
20.07.2018 22:30 23,5 C 23,6 C 10,8 C 40 % 46 % 1008,6 hPa 0,0 l/m 4,2 km/h (1 Bft) S 190 0 min
20.07.2018 22:25 23,6 C 23,7 C 10,8 C 40 % 46 % 1008,6 hPa 0,0 l/m 6,1 km/h (2 Bft) W-NW 300 0 min
20.07.2018 22:20 23,7 C 23,8 C 10,8 C 39 % 45 % 1008,6 hPa 0,0 l/m 6,1 km/h (2 Bft) N 350 0 min
20.07.2018 22:15 23,7 C 23,8 C 10,8 C 39 % 45 % 1008,6 hPa 0,0 l/m 9,7 km/h (2 Bft) NW 315 0 min
20.07.2018 22:10 23,6 C 23,8 C 10,8 C 39 % 45 % 1008,6 hPa 0,0 l/m 10,3 km/h (2 Bft) NW 320 0 min
20.07.2018 22:05 23,7 C 23,9 C 10,8 C 39 % 45 % 1008,6 hPa 0,0 l/m 10,3 km/h (2 Bft) NW 310 0 min
20.07.2018 22:00 23,7 C 23,9 C 10,8 C 39 % 45 % 1007,6 hPa 0,0 l/m 14,5 km/h (3 Bft) N-NW 330 0 min
20.07.2018 21:55 23,7 C 23,9 C 10,8 C 40 % 45 % 1007,6 hPa 0,0 l/m 15,1 km/h (3 Bft) NW 310 0 min
20.07.2018 21:50 23,9 C 24,0 C 10,8 C 39 % 45 % 1007,6 hPa 0,0 l/m 15,7 km/h (3 Bft) W-NW 290 0 min
20.07.2018 21:45 23,9 C 24,3 C 10,8 C 40 % 45 % 1008,6 hPa 0,0 l/m 15,7 km/h (3 Bft) NW 315 0 min
20.07.2018 21:40 24,0 C 24,3 C 10,8 C 39 % 45 % 1008,6 hPa 0,0 l/m 16,9 km/h (3 Bft) W-NW 290 0 min
20.07.2018 21:35 24,1 C 24,3 C 10,8 C 39 % 44 % 1008,6 hPa 0,0 l/m 18,2 km/h (3 Bft) W-NW 295 0 min
20.07.2018 21:30 24,2 C 24,6 C 10,8 C 39 % 44 % 1008,6 hPa 0,0 l/m 16,9 km/h (3 Bft) W-NW 285 0 min
20.07.2018 21:25 24,3 C 24,6 C 10,8 C 39 % 44 % 1008,6 hPa 0,0 l/m 18,8 km/h (3 Bft) NW 310 0 min
20.07.2018 21:20 24,5 C 24,9 C 10,8 C 39 % 44 % 1008,6 hPa 0,0 l/m 16,9 km/h (3 Bft) W-NW 290 0 min
20.07.2018 21:15 24,5 C 24,9 C 10,8 C 39 % 44 % 1007,6 hPa 0,0 l/m 21,8 km/h (4 Bft) W-NW 295 0 min
20.07.2018 21:10 24,7 C 25,0 C 10,8 C 38 % 44 % 1007,6 hPa 0,0 l/m 20,6 km/h (4 Bft) W-NW 295 0 min
20.07.2018 21:05 24,8 C 25,0 C 10,8 C 38 % 43 % 1007,6 hPa 0,0 l/m 15,7 km/h (3 Bft) W 280 0 min
20.07.2018 21:00 24,9 C 25,1 C 10,8 C 38 % 43 % 1008,6 hPa 0,0 l/m 20,0 km/h (4 Bft) W-NW 290 0 min
20.07.2018 20:55 25,0 C 25,3 C 10,8 C 38 % 43 % 1008,6 hPa 0,0 l/m 21,2 km/h (4 Bft) NW 310 0 min
20.07.2018 20:50 25,1 C 25,5 C 10,8 C 37 % 43 % 1008,6 hPa 0,0 l/m 24,8 km/h (4 Bft) NW 320 0 min
20.07.2018 20:45 25,2 C 25,5 C 10,8 C 37 % 42 % 1008,6 hPa 0,0 l/m 23,0 km/h (4 Bft) W-NW 295 0 min
20.07.2018 20:40 25,3 C 25,7 C 10,8 C 37 % 41 % 1008,6 hPa 0,0 l/m 27,8 km/h (5 Bft) NW 315 0 min
20.07.2018 20:35 25,5 C 25,7 C 10,8 C 36 % 41 % 1008,6 hPa 0,0 l/m 26,7 km/h (4 Bft) NW 305 0 min
20.07.2018 20:30 25,5 C 25,8 C 10,8 C 36 % 41 % 1007,6 hPa 0,0 l/m 21,8 km/h (4 Bft) W-NW 290 0 min
20.07.2018 20:25 25,6 C 25,9 C 10,8 C 36 % 40 % 1007,6 hPa 0,0 l/m 24,2 km/h (4 Bft) W-NW 300 0 min
20.07.2018 20:20 25,6 C 26,0 C 10,8 C 36 % 41 % 1007,6 hPa 0,0 l/m 20,6 km/h (4 Bft) W 280 0 min
20.07.2018 20:15 25,7 C 26,1 C 10,8 C 35 % 39 % 1008,6 hPa 0,0 l/m 21,8 km/h (4 Bft) NW 325 0 min
20.07.2018 20:10 25,9 C 26,1 C 10,8 C 35 % 39 % 1008,6 hPa 0,0 l/m 20,0 km/h (4 Bft) W 265 0 min
20.07.2018 20:05 25,9 C 26,2 C 10,8 C 35 % 38 % 1008,6 hPa 0,0 l/m 25,4 km/h (4 Bft) N-NW 335 0 min
20.07.2018 20:00 26,1 C 26,4 C 10,8 C 34 % 38 % 1008,6 hPa 0,0 l/m 21,8 km/h (4 Bft) W-NW 285 0 min
20.07.2018 19:55 26,2 C 26,6 C 10,8 C 34 % 38 % 1008,6 hPa 0,0 l/m 25,4 km/h (4 Bft) W-NW 290 0 min
20.07.2018 19:50 26,4 C 26,7 C 10,8 C 34 % 38 % 1008,6 hPa 0,0 l/m 21,8 km/h (4 Bft) W-NW 290 0 min
20.07.2018 19:45 26,5 C 26,8 C 10,8 C 34 % 37 % 1007,6 hPa 0,0 l/m 24,2 km/h (4 Bft) NW 320 0 min
20.07.2018 19:40 26,6 C 27,0 C 10,8 C 33 % 36 % 1007,5 hPa 0,0 l/m 18,2 km/h (3 Bft) W-NW 300 0 min
20.07.2018 19:35 26,7 C 27,1 C 10,8 C 32 % 35 % 1007,5 hPa 0,0 l/m 18,8 km/h (3 Bft) W 280 0 min
20.07.2018 19:30 26,8 C 27,2 C 10,8 C 32 % 35 % 1008,6 hPa 0,0 l/m 20,0 km/h (4 Bft) W-NW 290 0 min
20.07.2018 19:25 26,9 C 27,3 C 10,8 C 31 % 34 % 1008,5 hPa 0,0 l/m 18,2 km/h (3 Bft) NW 310 0 min
20.07.2018 19:20 27,0 C 27,4 C 10,8 C 31 % 33 % 1008,5 hPa 0,0 l/m 16,3 km/h (3 Bft) W 270 0 min
20.07.2018 19:15 27,2 C 27,4 C 10,8 C 30 % 33 % 1007,5 hPa 0,0 l/m 14,5 km/h (3 Bft) NW 310 0 min
20.07.2018 19:10 27,2 C 27,5 C 10,8 C 30 % 33 % 1007,5 hPa 0,0 l/m 20,6 km/h (4 Bft) N-NW 345 0 min
20.07.2018 19:05 27,5 C 27,8 C 10,8 C 30 % 33 % 1007,5 hPa 0,0 l/m 15,7 km/h (3 Bft) N-NW 340 0 min
20.07.2018 19:00 27,6 C 27,9 C 10,8 C 30 % 33 % 1008,5 hPa 0,0 l/m 12,1 km/h (2 Bft) W 280 0 min
20.07.2018 18:55 27,8 C 28,0 C 10,8 C 29 % 32 % 1008,5 hPa 0,0 l/m 12,1 km/h (2 Bft) W 280 0 min
20.07.2018 18:50 27,8 C 28,2 C 10,8 C 29 % 32 % 1008,5 hPa 0,0 l/m 11,5 km/h (2 Bft) NW 325 0 min
20.07.2018 18:45 28,2 C 28,4 C 10,8 C 28 % 31 % 1008,5 hPa 0,0 l/m 7,3 km/h (2 Bft) NW 305 0 min
20.07.2018 18:40 28,0 C 28,4 C 10,8 C 29 % 31 % 1008,5 hPa 0,0 l/m 15,7 km/h (3 Bft) NW 305 0 min
20.07.2018 18:35 28,3 C 28,6 C 10,8 C 28 % 31 % 1008,5 hPa 0,0 l/m 16,3 km/h (3 Bft) W 280 3 min
20.07.2018 18:30 28,2 C 28,8 C 10,8 C 28 % 30 % 1008,5 hPa 0,0 l/m 18,2 km/h (3 Bft) W-SW 255 0 min
20.07.2018 18:25 28,9 C 29,2 C 10,8 C 27 % 30 % 1008,5 hPa 0,0 l/m 10,9 km/h (2 Bft) W 280 5 min
20.07.2018 18:20 29,2 C 29,3 C 10,8 C 27 % 30 % 1008,5 hPa 0,0 l/m 12,1 km/h (2 Bft) NW 305 5 min
20.07.2018 18:15 29,5 C 29,4 C 10,8 C 27 % 29 % 1008,5 hPa 0,0 l/m 8,5 km/h (2 Bft) NW 320 5 min
20.07.2018 18:10 29,7 C 29,6 C 10,8 C 26 % 29 % 1008,5 hPa 0,0 l/m 12,7 km/h (3 Bft) W-NW 295 5 min
20.07.2018 18:05 29,5 C 29,6 C 10,8 C 26 % 30 % 1008,5 hPa 0,0 l/m 13,3 km/h (3 Bft) S 170 4 min
20.07.2018 18:00 29,6 C 29,6 C 10,8 C 27 % 29 % 1007,5 hPa 0,0 l/m 11,5 km/h (2 Bft) NW 310 5 min
20.07.2018 17:55 29,8 C 29,4 C 10,8 C 26 % 30 % 1007,5 hPa 0,0 l/m 11,5 km/h (2 Bft) W 270 6 min
20.07.2018 17:50 29,2 C 29,4 C 10,8 C 27 % 30 % 1007,5 hPa 0,0 l/m 14,5 km/h (3 Bft) W-SW 245 5 min
20.07.2018 17:45 29,5 C 29,4 C 10,8 C 27 % 30 % 1008,5 hPa 0,0 l/m 16,3 km/h (3 Bft) W 280 5 min
20.07.2018 17:40 29,3 C 29,4 C 10,8 C 27 % 30 % 1008,5 hPa 0,0 l/m 13,9 km/h (3 Bft) W-NW 295 5 min
20.07.2018 17:35 29,9 C 29,5 C 10,8 C 26 % 29 % 1008,5 hPa 0,0 l/m 11,5 km/h (2 Bft) O 90 4 min
20.07.2018 17:30 29,9 C 29,5 C 10,8 C 27 % 30 % 1008,5 hPa 0,0 l/m 17,6 km/h (3 Bft) N-NW 330 6 min
20.07.2018 17:25 29,5 C 29,5 C 10,8 C 27 % 30 % 1008,5 hPa 0,0 l/m 9,1 km/h (2 Bft) N-NW 330 5 min
20.07.2018 17:20 29,4 C 29,5 C 10,8 C 27 % 30 % 1008,5 hPa 0,0 l/m 16,3 km/h (3 Bft) W-NW 300 5 min
20.07.2018 17:15 29,4 C 29,6 C 10,8 C 27 % 30 % 1008,5 hPa 0,0 l/m 16,3 km/h (3 Bft) NW 320 5 min
20.07.2018 17:10 29,5 C 29,7 C 10,8 C 27 % 30 % 1008,5 hPa 0,0 l/m 20,6 km/h (4 Bft) W-SW 255 5 min
20.07.2018 17:05 29,5 C 29,4 C 10,8 C 28 % 30 % 1008,5 hPa 0,0 l/m 18,2 km/h (3 Bft) W-NW 295 5 min
20.07.2018 17:00 29,5 C 29,5 C 10,8 C 28 % 31 % 1008,5 hPa 0,0 l/m 25,4 km/h (4 Bft) W 280 5 min
20.07.2018 16:55 29,9 C 29,5 C 10,8 C 28 % 31 % 1008,5 hPa 0,0 l/m 8,5 km/h (2 Bft) NW 305 5 min
20.07.2018 16:50 29,3 C 29,2 C 10,8 C 28 % 32 % 1008,5 hPa 0,0 l/m 12,7 km/h (3 Bft) W-NW 285 5 min
20.07.2018 16:45 29,1 C 29,1 C 10,8 C 29 % 32 % 1009,5 hPa 0,0 l/m 6,7 km/h (2 Bft) NO 55 5 min
20.07.2018 16:40 29,2 C 29,5 C 10,8 C 29 % 32 % 1009,5 hPa 0,0 l/m 11,5 km/h (2 Bft) W 280 3 min
20.07.2018 16:35 29,1 C 29,5 C 10,8 C 29 % 32 % 1009,5 hPa 0,0 l/m 13,3 km/h (3 Bft) N 0 8 min
20.07.2018 16:30 29,6 C 29,6 C 10,8 C 29 % 32 % 1009,5 hPa 0,0 l/m 13,9 km/h (3 Bft) NW 310 2 min
20.07.2018 16:25 29,6 C 29,4 C 10,8 C 30 % 33 % 1009,5 hPa 0,0 l/m 12,1 km/h (2 Bft) W-NW 300 7 min
20.07.2018 16:20 29,4 C 29,2 C 10,8 C 30 % 33 % 1009,5 hPa 0,0 l/m 11,5 km/h (2 Bft) W-NW 295 3 min
20.07.2018 16:15 29,4 C 29,1 C 10,8 C 30 % 33 % 1009,5 hPa 0,0 l/m 12,7 km/h (3 Bft) W-SW 240 6 min
20.07.2018 16:10 29,3 C 29,1 C 10,8 C 30 % 33 % 1009,5 hPa 0,0 l/m 16,9 km/h (3 Bft) SW 235 5 min
20.07.2018 16:05 29,0 C 29,3 C 10,8 C 30 % 33 % 1009,5 hPa 0,0 l/m 20,6 km/h (4 Bft) NW 310 5 min
20.07.2018 16:00 29,4 C 29,1 C 10,8 C 30 % 33 % 1009,5 hPa 0,0 l/m 14,5 km/h (3 Bft) W-NW 290 4 min
20.07.2018 15:55 29,2 C 28,9 C 10,8 C 30 % 33 % 1009,5 hPa 0,0 l/m 11,5 km/h (2 Bft) N-NO 30 0 min
20.07.2018 15:50 28,8 C 28,8 C 10,8 C 31 % 34 % 1009,5 hPa 0,0 l/m 10,3 km/h (2 Bft) N-NW 330 0 min
20.07.2018 15:45 28,8 C 28,8 C 10,8 C 31 % 35 % 1009,5 hPa 0,0 l/m 15,7 km/h (3 Bft) N-NO 15 0 min
20.07.2018 15:40 28,8 C 28,9 C 10,8 C 31 % 35 % 1009,5 hPa 0,0 l/m 7,3 km/h (2 Bft) W-NW 285 0 min
20.07.2018 15:35 28,8 C 28,7 C 10,8 C 32 % 36 % 1009,5 hPa 0,0 l/m 13,3 km/h (3 Bft) S 185 0 min
20.07.2018 15:30 28,5 C 28,5 C 10,8 C 32 % 35 % 1009,5 hPa 0,0 l/m 19,4 km/h (3 Bft) W 275 0 min
20.07.2018 15:25 28,8 C 28,9 C 10,8 C 32 % 35 % 1009,5 hPa 0,0 l/m 10,3 km/h (2 Bft) W-NW 285 0 min
20.07.2018 15:20 28,7 C 28,7 C 10,8 C 32 % 36 % 1009,5 hPa 0,0 l/m 12,1 km/h (2 Bft) S-SW 200 1 min
20.07.2018 15:15 28,7 C 28,8 C 10,8 C 32 % 36 % 1009,5 hPa 0,0 l/m 16,3 km/h (3 Bft) NW 310 5 min
20.07.2018 15:10 29,1 C 28,7 C 10,8 C 32 % 36 % 1009,5 hPa 0,0 l/m 20,0 km/h (4 Bft) W-NW 285 5 min
20.07.2018 15:05 28,9 C 28,6 C 10,8 C 33 % 36 % 1009,5 hPa 0,0 l/m 13,3 km/h (3 Bft) NW 320 2 min
20.07.2018 15:00 29,1 C 28,5 C 10,8 C 32 % 36 % 1009,5 hPa 0,0 l/m 8,5 km/h (2 Bft) NW 320 0 min
20.07.2018 14:55 28,9 C 28,8 C 10,8 C 33 % 36 % 1009,5 hPa 0,0 l/m 17,6 km/h (3 Bft) W-NW 285 4 min
20.07.2018 14:50 28,7 C 28,4 C 10,8 C 34 % 37 % 1009,5 hPa 0,0 l/m 7,9 km/h (2 Bft) W 270 2 min
20.07.2018 14:45 28,6 C 28,4 C 10,8 C 34 % 37 % 1009,5 hPa 0,0 l/m 11,5 km/h (2 Bft) NO 35 1 min
20.07.2018 14:40 28,8 C 28,2 C 10,8 C 34 % 39 % 1009,5 hPa 0,0 l/m 13,3 km/h (3 Bft) NO 50 3 min
20.07.2018 14:35 28,4 C 28,0 C 10,8 C 34 % 39 % 1009,5 hPa 0,0 l/m 9,1 km/h (2 Bft) NW 315 4 min
20.07.2018 14:30 28,6 C 27,8 C 10,8 C 34 % 40 % 1010,6 hPa 0,0 l/m 10,9 km/h (2 Bft) N-NO 25 1 min
20.07.2018 14:25 27,8 C 27,6 C 10,8 C 34 % 40 % 1010,6 hPa 0,0 l/m 8,5 km/h (2 Bft) NW 320 5 min
20.07.2018 14:20 27,9 C 27,7 C 10,8 C 34 % 41 % 1010,6 hPa 0,0 l/m 6,1 km/h (2 Bft) W-SW 245 5 min
20.07.2018 14:15 27,8 C 27,7 C 10,8 C 35 % 40 % 1010,6 hPa 0,0 l/m 6,7 km/h (2 Bft) W 265 3 min
20.07.2018 14:10 28,2 C 27,5 C 10,8 C 35 % 40 % 1010,6 hPa 0,0 l/m 12,1 km/h (2 Bft) SW 220 0 min
20.07.2018 14:05 28,1 C 27,4 C 10,8 C 35 % 40 % 1010,6 hPa 0,0 l/m 13,9 km/h (3 Bft) W 275 3 min
20.07.2018 14:00 28,1 C 27,6 C 10,8 C 34 % 41 % 1010,6 hPa 0,0 l/m 6,1 km/h (2 Bft) N-NO 20 5 min
20.07.2018 13:55 27,6 C 27,4 C 10,8 C 35 % 40 % 1010,6 hPa 0,0 l/m 15,1 km/h (3 Bft) W-NW 290 6 min
20.07.2018 13:50 27,8 C 27,5 C 10,8 C 34 % 39 % 1010,6 hPa 0,0 l/m 7,9 km/h (2 Bft) W-NW 300 4 min
20.07.2018 13:45 28,1 C 27,4 C 10,8 C 35 % 42 % 1010,6 hPa 0,0 l/m 6,7 km/h (2 Bft) NO 50 5 min
20.07.2018 13:40 27,3 C 27,2 C 10,8 C 36 % 41 % 1010,6 hPa 0,0 l/m 7,9 km/h (2 Bft) W 280 3 min
20.07.2018 13:35 27,0 C 27,2 C 10,8 C 36 % 41 % 1010,6 hPa 0,0 l/m 16,9 km/h (3 Bft) O 100 3 min
20.07.2018 13:30 27,2 C 27,1 C 10,8 C 36 % 42 % 1010,6 hPa 0,0 l/m 12,7 km/h (3 Bft) W 275 5 min
20.07.2018 13:25 27,5 C 26,7 C 10,8 C 36 % 43 % 1010,6 hPa 0,0 l/m 8,5 km/h (2 Bft) W 270 3 min
20.07.2018 13:20 27,5 C 26,5 C 10,8 C 36 % 42 % 1010,6 hPa 0,0 l/m 13,9 km/h (3 Bft) N 5 5 min
20.07.2018 13:15 27,0 C 26,5 C 10,8 C 36 % 43 % 1010,6 hPa 0,0 l/m 12,7 km/h (3 Bft) S-SO 165 4 min
20.07.2018 13:10 27,3 C 26,4 C 10,8 C 36 % 42 % 1010,6 hPa 0,0 l/m 10,3 km/h (2 Bft) SO 140 5 min
20.07.2018 13:05 27,3 C 26,5 C 10,8 C 36 % 42 % 1010,6 hPa 0,0 l/m 12,1 km/h (2 Bft) NW 310 5 min
20.07.2018 13:00 27,0 C 26,6 C 10,8 C 36 % 42 % 1010,6 hPa 0,0 l/m 16,9 km/h (3 Bft) N 5 5 min
20.07.2018 12:55 26,6 C 26,4 C 10,8 C 37 % 43 % 1010,6 hPa 0,0 l/m 12,1 km/h (2 Bft) W-SW 245 5 min
20.07.2018 12:50 26,5 C 26,2 C 10,8 C 37 % 43 % 1010,6 hPa 0,0 l/m 9,1 km/h (2 Bft) SW 220 5 min
20.07.2018 12:45 26,6 C 26,1 C 10,8 C 37 % 43 % 1010,6 hPa 0,0 l/m 18,2 km/h (3 Bft) W-NW 295 6 min
20.07.2018 12:40 26,1 C 26,0 C 10,8 C 38 % 44 % 1010,6 hPa 0,0 l/m 19,4 km/h (3 Bft) W-NW 300 4 min
20.07.2018 12:35 26,5 C 25,9 C 10,8 C 37 % 44 % 1010,6 hPa 0,0 l/m 12,7 km/h (3 Bft) W-NW 295 4 min
20.07.2018 12:30 26,2 C 25,7 C 10,8 C 38 % 44 % 1010,6 hPa 0,0 l/m 19,4 km/h (3 Bft) W-SW 250 4 min
20.07.2018 12:25 25,9 C 25,5 C 10,8 C 39 % 46 % 1010,6 hPa 0,0 l/m 13,3 km/h (3 Bft) W 275 5 min
20.07.2018 12:20 25,7 C 25,4 C 10,8 C 39 % 44 % 1010,6 hPa 0,0 l/m 12,1 km/h (2 Bft) NW 310 3 min
20.07.2018 12:15 25,3 C 25,2 C 10,8 C 40 % 45 % 1010,6 hPa 0,0 l/m 15,7 km/h (3 Bft) W-NW 295 3 min
20.07.2018 12:10 25,6 C 25,3 C 10,8 C 40 % 45 % 1010,6 hPa 0,0 l/m 16,3 km/h (3 Bft) NW 310 5 min
20.07.2018 12:05 25,6 C 25,4 C 10,8 C 39 % 45 % 1010,6 hPa 0,0 l/m 9,7 km/h (2 Bft) N-NO 15 5 min
20.07.2018 12:00 25,8 C 25,4 C 10,8 C 39 % 45 % 1011,6 hPa 0,0 l/m 11,5 km/h (2 Bft) NW 315 4 min
20.07.2018 11:55 25,3 C 25,2 C 10,8 C 39 % 46 % 1011,6 hPa 0,0 l/m 14,5 km/h (3 Bft) N-NW 330 2 min
20.07.2018 11:50 25,5 C 25,3 C 10,8 C 39 % 45 % 1011,6 hPa 0,0 l/m 14,5 km/h (3 Bft) W 280 1 min
20.07.2018 11:45 25,7 C 25,3 C 10,8 C 39 % 45 % 1010,6 hPa 0,0 l/m 15,7 km/h (3 Bft) W-NW 295 1 min
20.07.2018 11:40 26,0 C 25,3 C 10,8 C 39 % 46 % 1010,6 hPa 0,0 l/m 9,7 km/h (2 Bft) N-NO 30 5 min
20.07.2018 11:35 26,3 C 25,4 C 10,8 C 38 % 45 % 1010,6 hPa 0,0 l/m 10,9 km/h (2 Bft) W-NW 285 4 min
20.07.2018 11:30 26,1 C 25,4 C 10,8 C 38 % 46 % 1010,6 hPa 0,0 l/m 9,7 km/h (2 Bft) S-SO 165 5 min
20.07.2018 11:25 25,9 C 25,3 C 10,8 C 39 % 46 % 1010,6 hPa 0,0 l/m 14,5 km/h (3 Bft) W-NW 295 3 min
20.07.2018 11:20 26,0 C 25,2 C 10,8 C 38 % 46 % 1010,6 hPa 0,0 l/m 9,7 km/h (2 Bft) S-SW 205 7 min
20.07.2018 11:15 25,8 C 25,1 C 10,8 C 39 % 48 % 1010,6 hPa 0,0 l/m 9,1 km/h (2 Bft) O-SO 115 3 min
20.07.2018 11:10 25,8 C 24,7 C 10,8 C 39 % 48 % 1010,6 hPa 0,0 l/m 9,7 km/h (2 Bft) W 280 7 min
20.07.2018 11:05 25,3 C 24,5 C 10,8 C 41 % 49 % 1010,6 hPa 0,0 l/m 8,5 km/h (2 Bft) SW 215 6 min
20.07.2018 11:00 25,4 C 24,6 C 10,8 C 42 % 49 % 1011,6 hPa 0,0 l/m 9,7 km/h (2 Bft) N-NW 345 1 min
20.07.2018 10:55 25,1 C 24,4 C 10,8 C 42 % 49 % 1011,6 hPa 0,0 l/m 12,1 km/h (2 Bft) N-NO 20 3 min
20.07.2018 10:50 25,0 C 24,4 C 10,8 C 42 % 48 % 1011,6 hPa 0,0 l/m 10,3 km/h (2 Bft) W-NW 290 4 min
20.07.2018 10:45 25,4 C 24,3 C 10,8 C 43 % 54 % 1011,6 hPa 0,0 l/m 9,7 km/h (2 Bft) NW 310 5 min
20.07.2018 10:40 25,2 C 24,0 C 10,8 C 43 % 51 % 1011,6 hPa 0,0 l/m 8,5 km/h (2 Bft) W-NW 290 3 min
20.07.2018 10:35 24,9 C 24,0 C 10,8 C 45 % 55 % 1011,6 hPa 0,0 l/m 4,8 km/h (1 Bft) S-SO 165 4 min
20.07.2018 10:30 24,9 C 23,7 C 10,8 C 46 % 57 % 1011,6 hPa 0,0 l/m 6,7 km/h (2 Bft) NO 55 5 min
20.07.2018 10:25 25,1 C 23,5 C 10,8 C 47 % 58 % 1011,6 hPa 0,0 l/m 6,1 km/h (2 Bft) NO 45 4 min
20.07.2018 10:20 24,3 C 23,3 C 10,8 C 48 % 58 % 1011,6 hPa 0,0 l/m 9,7 km/h (2 Bft) SW 230 6 min
20.07.2018 10:15 24,6 C 23,3 C 10,8 C 47 % 59 % 1011,6 hPa 0,0 l/m 6,1 km/h (2 Bft) NW 315 4 min
20.07.2018 10:10 24,2 C 22,9 C 10,8 C 48 % 60 % 1011,6 hPa 0,0 l/m 4,8 km/h (1 Bft) W 275 5 min
20.07.2018 10:05 23,9 C 22,7 C 10,8 C 49 % 59 % 1011,6 hPa 0,0 l/m 6,7 km/h (2 Bft) W 265 0 min
20.07.2018 10:00 23,5 C 22,6 C 10,8 C 50 % 60 % 1011,6 hPa 0,0 l/m 9,7 km/h (2 Bft) O-NO 65 2 min
20.07.2018 09:55 23,0 C 22,5 C 10,8 C 50 % 59 % 1011,6 hPa 0,0 l/m 8,5 km/h (2 Bft) N-NO 30 2 min
20.07.2018 09:50 23,2 C 22,5 C 10,8 C 51 % 60 % 1011,6 hPa 0,0 l/m 4,8 km/h (1 Bft) W 265 0 min
20.07.2018 09:45 23,1 C 22,5 C 10,8 C 51 % 61 % 1011,6 hPa 0,0 l/m 4,8 km/h (1 Bft) W-NW 300 6 min
20.07.2018 09:40 23,0 C 22,4 C 10,8 C 50 % 60 % 1011,6 hPa 0,0 l/m 5,4 km/h (2 Bft) N-NW 330 4 min
20.07.2018 09:35 23,0 C 22,1 C 10,8 C 50 % 62 % 1011,6 hPa 0,0 l/m 3,0 km/h (1 Bft) O-NO 75 6 min
20.07.2018 09:30 22,5 C 21,9 C 10,8 C 51 % 61 % 1011,6 hPa 0,0 l/m 3,6 km/h (1 Bft) SW 220 4 min
20.07.2018 09:25 22,6 C 21,9 C 10,8 C 51 % 62 % 1011,6 hPa 0,0 l/m 3,6 km/h (1 Bft) O-SO 120 6 min
20.07.2018 09:20 22,4 C 21,8 C 10,8 C 52 % 62 % 1011,6 hPa 0,0 l/m 4,2 km/h (1 Bft) O 100 5 min
20.07.2018 09:15 21,9 C 21,4 C 10,8 C 52 % 62 % 1011,6 hPa 0,0 l/m 6,7 km/h (2 Bft) SO 125 5 min
20.07.2018 09:10 22,2 C 21,2 C 10,8 C 52 % 64 % 1011,6 hPa 0,0 l/m 7,9 km/h (2 Bft) SO 140 5 min
20.07.2018 09:05 21,8 C 20,9 C 10,8 C 54 % 65 % 1011,6 hPa 0,0 l/m 2,4 km/h (1 Bft) W-SW 245 5 min
20.07.2018 09:00 21,8 C 20,7 C 10,8 C 54 % 66 % 1011,6 hPa 0,0 l/m 3,6 km/h (1 Bft) W-SW 255 6 min
20.07.2018 08:55 21,3 C 20,4 C 10,8 C 55 % 66 % 1011,6 hPa 0,0 l/m 3,0 km/h (1 Bft) SW 215 4 min
20.07.2018 08:50 21,3 C 20,1 C 10,8 C 56 % 67 % 1011,6 hPa 0,0 l/m 1,8 km/h (1 Bft) W 270 6 min
20.07.2018 08:45 21,2 C 20,0 C 10,8 C 57 % 68 % 1011,6 hPa 0,0 l/m 3,6 km/h (1 Bft) W-NW 290 4 min
20.07.2018 08:40 21,2 C 19,9 C 10,8 C 58 % 69 % 1011,6 hPa 0,0 l/m 0,0 km/h (0 Bft) S 180 6 min
20.07.2018 08:35 20,4 C 19,8 C 10,8 C 61 % 69 % 1011,7 hPa 0,0 l/m 0,0 km/h (0 Bft) W 275 4 min
20.07.2018 08:30 19,9 C 19,5 C 10,8 C 62 % 70 % 1011,7 hPa 0,0 l/m 4,8 km/h (1 Bft) W-SW 245 5 min
20.07.2018 08:25 19,8 C 19,4 C 10,8 C 62 % 70 % 1011,7 hPa 0,0 l/m 1,2 km/h (1 Bft) NW 315 6 min
20.07.2018 08:20 19,6 C 19,1 C 10,8 C 63 % 71 % 1011,7 hPa 0,0 l/m 1,2 km/h (1 Bft) NW 325 5 min
20.07.2018 08:15 19,3 C 19,0 C 10,8 C 64 % 71 % 1011,7 hPa 0,0 l/m 1,8 km/h (1 Bft) NW 305 4 min
20.07.2018 08:10 19,2 C 18,9 C 10,8 C 64 % 72 % 1011,7 hPa 0,0 l/m 0,6 km/h (0 Bft) W-NW 300 2 min
20.07.2018 08:05 19,0 C 18,6 C 10,8 C 65 % 72 % 1011,7 hPa 0,0 l/m 1,8 km/h (1 Bft) W 275 0 min
20.07.2018 08:00 18,7 C 18,5 C 10,8 C 65 % 72 % 1011,7 hPa 0,0 l/m 2,4 km/h (1 Bft) W-NW 295 0 min
20.07.2018 07:55 18,6 C 18,4 C 10,8 C 65 % 73 % 1011,7 hPa 0,0 l/m 2,4 km/h (1 Bft) NW 310 0 min
20.07.2018 07:50 18,4 C 18,2 C 10,8 C 66 % 73 % 1011,7 hPa 0,0 l/m 3,6 km/h (1 Bft) W-NW 285 0 min
20.07.2018 07:45 18,2 C 18,0 C 10,8 C 66 % 73 % 1011,7 hPa 0,0 l/m 1,8 km/h (1 Bft) W 265 0 min
20.07.2018 07:40 18,1 C 17,8 C 10,8 C 66 % 73 % 1011,7 hPa 0,0 l/m 0,0 km/h (0 Bft) W 280 0 min
20.07.2018 07:35 18,0 C 17,6 C 10,8 C 67 % 74 % 1011,7 hPa 0,0 l/m 0,0 km/h (0 Bft) W 270 0 min
20.07.2018 07:30 17,7 C 17,4 C 10,8 C 67 % 74 % 1011,7 hPa 0,0 l/m 0,0 km/h (0 Bft) W-NW 290 0 min
20.07.2018 07:25 17,6 C 17,3 C 10,8 C 67 % 74 % 1011,7 hPa 0,0 l/m 0,0 km/h (0 Bft) W 260 0 min
20.07.2018 07:20 17,4 C 17,1 C 10,8 C 67 % 74 % 1011,7 hPa 0,0 l/m 1,2 km/h (1 Bft) W 265 0 min
20.07.2018 07:15 17,4 C 17,0 C 10,8 C 67 % 75 % 1011,7 hPa 0,0 l/m 0,0 km/h (0 Bft) W-NW 290 0 min
20.07.2018 07:10 17,1 C 16,8 C 10,8 C 68 % 75 % 1011,7 hPa 0,0 l/m 0,0 km/h (0 Bft) W-NW 290 0 min
20.07.2018 07:05 17,0 C 16,7 C 10,8 C 68 % 75 % 1011,7 hPa 0,0 l/m 0,0 km/h (0 Bft) SW 215 0 min
20.07.2018 07:00 16,9 C 16,6 C 10,8 C 68 % 75 % 1012,7 hPa 0,0 l/m 0,0 km/h (0 Bft) NW 305 0 min
20.07.2018 06:55 16,8 C 16,4 C 10,8 C 69 % 76 % 1012,7 hPa 0,0 l/m 0,0 km/h (0 Bft) W-NW 295 0 min
20.07.2018 06:50 16,8 C 16,2 C 10,8 C 69 % 76 % 1012,7 hPa 0,0 l/m 0,0 km/h (0 Bft) W 260 0 min
20.07.2018 06:45 16,8 C 16,1 C 10,8 C 69 % 76 % 1011,7 hPa 0,0 l/m 0,0 km/h (0 Bft) W-SW 245 0 min
20.07.2018 06:40 16,7 C 16,0 C 10,8 C 69 % 75 % 1011,7 hPa 0,0 l/m 0,0 km/h (0 Bft) W 275 0 min
20.07.2018 06:35 16,6 C 16,0 C 10,8 C 69 % 75 % 1011,7 hPa 0,0 l/m 0,0 km/h (0 Bft) NW 315 0 min
20.07.2018 06:30 16,5 C 16,0 C 10,8 C 70 % 74 % 1011,7 hPa 0,0 l/m 0,0 km/h (0 Bft) O 100 0 min
20.07.2018 06:25 16,4 C 15,9 C 10,8 C 70 % 74 % 1011,7 hPa 0,0 l/m 0,0 km/h (0 Bft) SO 130 0 min
20.07.2018 06:20 16,3 C 15,9 C 10,8 C 69 % 74 % 1011,7 hPa 0,0 l/m 0,0 km/h (0 Bft) S-SO 155 0 min
20.07.2018 06:15 16,3 C 16,0 C 10,8 C 69 % 72 % 1011,7 hPa 0,0 l/m 0,0 km/h (0 Bft) SW 235 0 min
20.07.2018 06:10 16,3 C 16,1 C 10,8 C 69 % 72 % 1011,7 hPa 0,0 l/m 0,0 km/h (0 Bft) SW 235 0 min
20.07.2018 06:05 16,4 C 16,2 C 10,8 C 69 % 72 % 1011,7 hPa 0,0 l/m 0,0 km/h (0 Bft) SW 235 0 min
20.07.2018 06:00 16,4 C 16,4 C 10,8 C 68 % 71 % 1011,7 hPa 0,0 l/m 0,0 km/h (0 Bft) SW 230 0 min
20.07.2018 05:55 16,6 C 16,5 C 10,8 C 67 % 70 % 1011,7 hPa 0,0 l/m 0,0 km/h (0 Bft) SW 230 0 min
20.07.2018 05:50 16,8 C 16,6 C 10,8 C 66 % 70 % 1011,7 hPa 0,0 l/m 0,0 km/h (0 Bft) SW 230 0 min
20.07.2018 05:45 17,0 C 16,8 C 10,8 C 66 % 70 % 1012,7 hPa 0,0 l/m 0,0 km/h (0 Bft) NW 310 0 min
20.07.2018 05:40 17,2 C 17,1 C 10,8 C 66 % 71 % 1012,7 hPa 0,0 l/m 0,6 km/h (0 Bft) NW 320 0 min
20.07.2018 05:35 17,2 C 17,2 C 10,8 C 66 % 71 % 1012,7 hPa 0,0 l/m 0,6 km/h (0 Bft) N-NO 20 0 min
20.07.2018 05:30 17,3 C 17,4 C 10,8 C 66 % 71 % 1011,7 hPa 0,0 l/m 0,0 km/h (0 Bft) N-NO 25 0 min
20.07.2018 05:25 17,4 C 17,4 C 10,8 C 65 % 71 % 1011,7 hPa 0,0 l/m 0,6 km/h (0 Bft) N 10 0 min
20.07.2018 05:20 17,4 C 17,4 C 10,8 C 65 % 71 % 1011,7 hPa 0,0 l/m 1,8 km/h (1 Bft) N-NO 30 0 min
20.07.2018 05:15 17,4 C 17,4 C 10,8 C 65 % 71 % 1011,7 hPa 0,0 l/m 3,0 km/h (1 Bft) N-NO 30 0 min
20.07.2018 05:10 17,4 C 17,4 C 10,8 C 65 % 71 % 1011,7 hPa 0,0 l/m 2,4 km/h (1 Bft) N-NO 15 0 min
20.07.2018 05:05 17,5 C 17,3 C 10,8 C 65 % 71 % 1011,7 hPa 0,0 l/m 3,0 km/h (1 Bft) NO 35 0 min
20.07.2018 05:00 17,5 C 17,2 C 10,8 C 65 % 71 % 1012,7 hPa 0,0 l/m 2,4 km/h (1 Bft) NO 40 0 min
20.07.2018 04:55 17,5 C 17,0 C 10,8 C 64 % 71 % 1012,7 hPa 0,0 l/m 1,8 km/h (1 Bft) N-NO 20 0 min
20.07.2018 04:50 17,5 C 17,0 C 10,8 C 64 % 71 % 1012,7 hPa 0,0 l/m 1,8 km/h (1 Bft) NO 45 0 min
20.07.2018 04:45 17,5 C 17,0 C 10,8 C 64 % 70 % 1012,7 hPa 0,0 l/m 0,6 km/h (0 Bft) N 5 0 min
20.07.2018 04:40 17,5 C 17,2 C 10,8 C 64 % 69 % 1012,7 hPa 0,0 l/m 0,0 km/h (0 Bft) NW 315 0 min
20.07.2018 04:35 17,5 C 17,2 C 10,8 C 63 % 69 % 1012,7 hPa 0,0 l/m 0,0 km/h (0 Bft) N 350 0 min
20.07.2018 04:30 17,6 C 17,4 C 10,8 C 63 % 68 % 1012,7 hPa 0,0 l/m 0,0 km/h (0 Bft) NW 315 0 min
20.07.2018 04:25 17,7 C 17,6 C 10,8 C 63 % 68 % 1012,7 hPa 0,0 l/m 0,0 km/h (0 Bft) N-NW 330 0 min
20.07.2018 04:20 17,8 C 17,7 C 10,8 C 62 % 67 % 1012,7 hPa 0,0 l/m 0,0 km/h (0 Bft) N-NO 20 0 min
20.07.2018 04:15 17,8 C 18,0 C 10,8 C 62 % 67 % 1012,7 hPa 0,0 l/m 0,0 km/h (0 Bft) N-NW 335 0 min
20.07.2018 04:10 18,1 C 18,2 C 10,8 C 61 % 67 % 1012,7 hPa 0,0 l/m 1,2 km/h (1 Bft) W-NW 300 0 min
20.07.2018 04:05 18,1 C 18,2 C 10,8 C 61 % 66 % 1012,7 hPa 0,0 l/m 0,0 km/h (0 Bft) N 0 0 min
20.07.2018 04:00 18,3 C 18,2 C 10,8 C 60 % 66 % 1012,7 hPa 0,0 l/m 0,0 km/h (0 Bft) NO 35 0 min
20.07.2018 03:55 18,3 C 18,5 C 10,8 C 60 % 65 % 1012,7 hPa 0,0 l/m 0,6 km/h (0 Bft) N-NO 25 0 min
20.07.2018 03:50 18,3 C 18,5 C 10,8 C 60 % 65 % 1012,7 hPa 0,0 l/m 1,8 km/h (1 Bft) N-NO 25 0 min
20.07.2018 03:45 18,3 C 18,6 C 10,8 C 60 % 65 % 1012,7 hPa 0,0 l/m 3,0 km/h (1 Bft) O-NO 65 0 min
20.07.2018 03:40 18,4 C 18,7 C 10,8 C 59 % 64 % 1012,7 hPa 0,0 l/m 2,4 km/h (1 Bft) N-NO 15 0 min
20.07.2018 03:35 18,5 C 18,8 C 10,8 C 59 % 64 % 1012,7 hPa 0,0 l/m 3,6 km/h (1 Bft) N-NO 15 0 min
20.07.2018 03:30 18,6 C 18,8 C 10,8 C 58 % 64 % 1012,7 hPa 0,0 l/m 2,4 km/h (1 Bft) N 10 0 min
20.07.2018 03:25 18,6 C 18,9 C 10,8 C 58 % 64 % 1012,7 hPa 0,0 l/m 4,2 km/h (1 Bft) NO 40 0 min
20.07.2018 03:20 18,7 C 18,9 C 10,8 C 58 % 64 % 1012,7 hPa 0,0 l/m 0,0 km/h (0 Bft) NO 40 0 min
20.07.2018 03:15 18,8 C 18,9 C 10,8 C 57 % 64 % 1012,7 hPa 0,0 l/m 4,2 km/h (1 Bft) N 5 0 min
20.07.2018 03:10 18,8 C 18,9 C 10,8 C 57 % 64 % 1012,7 hPa 0,0 l/m 3,6 km/h (1 Bft) NO 45 0 min
20.07.2018 03:05 18,8 C 18,9 C 10,8 C 57 % 63 % 1012,7 hPa 0,0 l/m 3,6 km/h (1 Bft) NW 320 0 min
20.07.2018 03:00 18,9 C 18,9 C 10,8 C 57 % 62 % 1012,7 hPa 0,0 l/m 4,2 km/h (1 Bft) N-NW 345 0 min
20.07.2018 02:55 18,9 C 19,0 C 10,8 C 57 % 62 % 1012,7 hPa 0,0 l/m 3,6 km/h (1 Bft) N-NO 20 0 min
20.07.2018 02:50 18,9 C 19,1 C 10,8 C 56 % 62 % 1012,7 hPa 0,0 l/m 1,8 km/h (1 Bft) NW 310 0 min
20.07.2018 02:45 19,0 C 19,2 C 10,8 C 56 % 62 % 1012,7 hPa 0,0 l/m 0,6 km/h (0 Bft) N-NW 335 0 min
20.07.2018 02:40 19,1 C 19,4 C 10,8 C 55 % 61 % 1012,7 hPa 0,0 l/m 0,6 km/h (0 Bft) N-NW 335 0 min
20.07.2018 02:35 19,3 C 19,6 C 10,8 C 55 % 61 % 1012,7 hPa 0,0 l/m 2,4 km/h (1 Bft) W-SW 255 0 min
20.07.2018 02:30 19,3 C 19,6 C 10,8 C 54 % 60 % 1013,7 hPa 0,0 l/m 0,0 km/h (0 Bft) N 0 0 min
20.07.2018 02:25 19,4 C 19,7 C 10,8 C 54 % 60 % 1013,7 hPa 0,0 l/m 4,8 km/h (1 Bft) N-NO 15 0 min
20.07.2018 02:20 19,4 C 19,8 C 10,8 C 54 % 60 % 1013,7 hPa 0,0 l/m 6,1 km/h (2 Bft) N 0 0 min
20.07.2018 02:15 19,5 C 19,8 C 10,8 C 53 % 59 % 1013,7 hPa 0,0 l/m 4,8 km/h (1 Bft) N 0 0 min
20.07.2018 02:10 19,5 C 19,8 C 10,8 C 53 % 59 % 1013,7 hPa 0,0 l/m 3,6 km/h (1 Bft) N-NW 330 0 min
20.07.2018 02:05 19,6 C 19,9 C 10,8 C 53 % 59 % 1013,7 hPa 0,0 l/m 4,8 km/h (1 Bft) N 5 0 min
20.07.2018 02:00 19,7 C 20,0 C 10,8 C 52 % 58 % 1013,7 hPa 0,0 l/m 2,4 km/h (1 Bft) N-NW 335 0 min
20.07.2018 01:55 19,8 C 20,1 C 10,8 C 52 % 58 % 1013,7 hPa 0,0 l/m 2,4 km/h (1 Bft) N-NW 335 0 min
20.07.2018 01:50 19,9 C 20,2 C 10,8 C 51 % 58 % 1013,7 hPa 0,0 l/m 3,6 km/h (1 Bft) N-NW 345 0 min
20.07.2018 01:45 20,0 C 20,3 C 10,8 C 51 % 58 % 1013,7 hPa 0,0 l/m 4,2 km/h (1 Bft) W-NW 285 0 min
20.07.2018 01:40 20,1 C 20,4 C 10,8 C 51 % 58 % 1013,7 hPa 0,0 l/m 4,8 km/h (1 Bft) N-NO 15 0 min
20.07.2018 01:35 20,1 C 20,4 C 10,8 C 51 % 57 % 1013,7 hPa 0,0 l/m 7,9 km/h (2 Bft) NO 35 0 min
20.07.2018 01:30 20,2 C 20,5 C 10,8 C 50 % 57 % 1013,6 hPa 0,0 l/m 13,9 km/h (3 Bft) N-NO 30 0 min
20.07.2018 01:25 20,2 C 20,5 C 10,8 C 50 % 57 % 1013,6 hPa 0,0 l/m 6,1 km/h (2 Bft) NO 55 0 min
20.07.2018 01:20 20,2 C 20,6 C 10,8 C 50 % 56 % 1013,6 hPa 0,0 l/m 6,1 km/h (2 Bft) NW 305 0 min
20.07.2018 01:15 20,3 C 20,7 C 10,8 C 49 % 55 % 1013,6 hPa 0,0 l/m 4,8 km/h (1 Bft) N-NO 30 0 min
20.07.2018 01:10 20,4 C 20,8 C 10,8 C 49 % 55 % 1013,6 hPa 0,0 l/m 4,2 km/h (1 Bft) W 260 0 min
20.07.2018 01:05 20,5 C 20,8 C 10,8 C 49 % 55 % 1013,6 hPa 0,0 l/m 3,6 km/h (1 Bft) N-NW 345 0 min
20.07.2018 01:00 20,6 C 21,0 C 10,8 C 49 % 55 % 1013,6 hPa 0,0 l/m 4,2 km/h (1 Bft) N 350 0 min
20.07.2018 00:55 20,8 C 21,0 C 10,8 C 48 % 54 % 1013,6 hPa 0,0 l/m 3,6 km/h (1 Bft) NO 40 0 min
20.07.2018 00:50 20,8 C 21,2 C 10,8 C 48 % 54 % 1013,6 hPa 0,0 l/m 4,8 km/h (1 Bft) N-NO 30 0 min
20.07.2018 00:45 21,0 C 21,3 C 10,8 C 48 % 54 % 1013,6 hPa 0,0 l/m 6,7 km/h (2 Bft) N 350 0 min
20.07.2018 00:40 21,1 C 21,4 C 10,8 C 48 % 54 % 1013,6 hPa 0,0 l/m 7,9 km/h (2 Bft) NO 40 0 min
20.07.2018 00:35 21,2 C 21,5 C 10,8 C 47 % 54 % 1013,6 hPa 0,0 l/m 9,1 km/h (2 Bft) O-NO 75 0 min
20.07.2018 00:30 21,3 C 21,6 C 10,8 C 47 % 53 % 1012,6 hPa 0,0 l/m 7,9 km/h (2 Bft) N-NO 15 0 min
20.07.2018 00:25 21,3 C 21,7 C 10,8 C 47 % 53 % 1012,6 hPa 0,0 l/m 8,5 km/h (2 Bft) NW 310 0 min
20.07.2018 00:20 21,5 C 21,8 C 10,8 C 47 % 53 % 1012,6 hPa 0,0 l/m 8,5 km/h (2 Bft) NO 45 0 min
20.07.2018 00:15 21,5 C 21,9 C 10,8 C 47 % 53 % 1013,6 hPa 0,0 l/m 11,5 km/h (2 Bft) N 5 0 min
20.07.2018 00:10 21,6 C 22,0 C 10,8 C 47 % 53 % 1013,6 hPa 0,0 l/m 11,5 km/h (2 Bft) N 0 0 min
20.07.2018 00:05 21,7 C 22,1 C 10,8 C 47 % 53 % 1013,6 hPa 0,0 l/m 9,7 km/h (2 Bft) NO 45 0 min
20.07.2018 00:00 21,9 C 22,2 C 10,8 C 46 % 53 % 1013,6 hPa 0,0 l/m 12,7 km/h (3 Bft) N 0 0 min
_ Min-Zeit 06:10 06:20 00:00 17:35 17:35 18:00 - 02:30 - - -
Minimum _ 16,3 C 15,9 C 10,8 C 26 % 29 % 1007,5 hPa - 0,0 km/h (0 Bft) - - -
_ Max-Zeit 16:55 17:10 00:00 06:25 06:45 02:30 00:00 20:40 - - 16:35
Maximum _ 29,9 C 29,7 C 10,8 C 70 % 76 % 1013,7 hPa 0,0 l/m 27,8 km/h
NW (5 Bft)
- - 8 min
Durchschnitt _ 23,5 C 23,3 C 10,8 C 45 % 51 % 1010,7 hPa #0,0 l/m 9,1 km/h (2 Bft) W-NW - #8:16 h